{"data":{"norad_id":59929,"intl_designator":"2024-106H","name":"STARLINK-31932","alt_names":[],"object_type":"PAYLOAD","status":"ACTIVE","operator":null,"country":"US","launch_date":"2024-06-01","launch_site_code":"AFETR","launch_vehicle":null,"mission":null,"orbit_class":"UNKNOWN","rcs_meters":null,"size_class":null,"mass_kg":null,"dimensions":null,"purposes":["comms"],"wikipedia_slug":null,"has_3d_model":false,"image_url":null,"decayed_at":null,"tle_current":{"epoch":"2026-09-21T08:00:03.000384Z","epoch_age_seconds":102496,"freshness":"FRESH","line1":"1 59929U 24106H   26264.33336806 -.00013411  00000+0 -47867-3 0  9995","line2":"2 59929  43.0023 304.4277 0001197 272.0811 308.2491 15.27583453  5728","mean_motion":15.27583453,"eccentricity":0.0001197,"inclination_deg":43.0023,"raan_deg":304.4277,"arg_perigee_deg":272.0811,"mean_anomaly_deg":308.2491,"bstar":-0.00047867,"rev_number":572,"period_min":94.266535629985,"perigee_km":482.21747379686,"apogee_km":483.86003927298,"semimajor_km":6861.1757565349,"source":"CELESTRAK","updated_at":"2026-09-22T09:00:49.112079Z"}}}